Time,TemperatureF,DewpointF,PressureIn,WindDirection,WindDirectionDegrees,WindSpeedMPH,WindSpeedGustMPH,Humidity,HourlyPrecipIn,Conditions,Clouds,dailyrainin,SoftwareType,DateUTC
2013-06-29 00:00:00,71.6,63.6,29.91,ENE,68,0.0,1.3,76,0.00,,---,0.00,VWS V14.01,2013-06-29 07:00:00,
2013-06-29 00:05:00,71.4,63.5,29.91,East,90,0.0,2.0,76,0.00,,---,0.00,VWS V14.01,2013-06-29 07:05:00,
2013-06-29 00:10:00,71.2,62.5,29.91,ENE,68,0.0,0.0,74,0.00,,---,0.00,VWS V14.01,2013-06-29 07:10:00,
2013-06-29 00:16:00,70.9,61.8,29.91,ENE,68,0.0,0.0,73,0.00,,---,0.00,VWS V14.01,2013-06-29 07:16:00,
2013-06-29 00:21:00,70.7,61.2,29.91,ENE,68,0.9,1.6,72,0.00,,---,0.00,VWS V14.01,2013-06-29 07:21:00,
2013-06-29 00:26:00,70.5,60.7,29.91,ENE,68,0.0,0.0,71,0.00,,---,0.00,VWS V14.01,2013-06-29 07:26:00,
2013-06-29 00:31:00,70.3,60.5,29.91,East,90,0.0,0.0,71,0.00,,---,0.00,VWS V14.01,2013-06-29 07:31:00,
2013-06-29 00:36:00,70.2,60.3,29.91,SSE,158,0.0,0.0,71,0.00,,---,0.00,VWS V14.01,2013-06-29 07:36:00,
2013-06-29 00:41:00,70.2,59.9,29.91,SE,135,0.0,0.0,70,0.00,,---,0.00,VWS V14.01,2013-06-29 07:41:00,
2013-06-29 00:46:00,70.0,59.8,29.91,SSE,158,0.0,0.0,70,0.00,,---,0.00,VWS V14.01,2013-06-29 07:46:00,
2013-06-29 00:51:00,69.8,59.2,29.91,SE,135,2.0,2.2,69,0.00,,---,0.00,VWS V14.01,2013-06-29 07:51:00,
2013-06-29 00:56:00,69.6,59.4,29.91,SE,135,0.0,2.0,70,0.00,,---,0.00,VWS V14.01,2013-06-29 07:56:00,
2013-06-29 01:01:00,69.4,58.8,29.91,SE,135,0.0,0.0,69,0.00,,---,0.00,VWS V14.01,2013-06-29 08:01:00,
2013-06-29 01:06:00,69.4,58.8,29.91,SE,135,1.6,1.6,69,0.00,,---,0.00,VWS V14.01,2013-06-29 08:06:00,
2013-06-29 01:11:00,69.3,59.1,29.91,SE,135,0.0,1.1,70,0.00,,---,0.00,VWS V14.01,2013-06-29 08:11:00,
2013-06-29 01:16:00,69.1,58.9,29.91,NNE,22,0.0,0.0,70,0.00,,---,0.00,VWS V14.01,2013-06-29 08:16:00,
2013-06-29 01:21:00,68.9,58.7,29.91,NNE,22,0.0,0.0,70,0.00,,---,0.00,VWS V14.01,2013-06-29 08:21:00,
2013-06-29 01:26:00,68.7,58.5,29.91,NNE,22,0.0,0.0,70,0.00,,---,0.00,VWS V14.01,2013-06-29 08:26:00,
2013-06-29 01:31:00,68.5,58.8,29.91,NE,45,0.0,0.0,71,0.00,,---,0.00,VWS V14.01,2013-06-29 08:31:00,
2013-06-29 01:36:00,68.4,58.6,29.91,NE,45,0.0,0.0,71,0.00,,---,0.00,VWS V14.01,2013-06-29 08:36:00,
2013-06-29 01:41:00,68.2,58.4,29.91,NE,45,0.0,0.0,71,0.00,,---,0.00,VWS V14.01,2013-06-29 08:41:00,
2013-06-29 01:46:00,68.0,58.3,29.91,NNE,22,0.0,0.0,71,0.00,,---,0.00,VWS V14.01,2013-06-29 08:46:00,
2013-06-29 01:51:00,68.0,57.9,29.91,NNE,22,0.0,0.0,70,0.00,,---,0.00,VWS V14.01,2013-06-29 08:51:00,
2013-06-29 01:56:00,67.8,58.1,29.88,NNE,22,0.0,0.0,71,0.00,,---,0.00,VWS V14.01,2013-06-29 08:56:00,
2013-06-29 02:01:00,67.6,58.3,29.88,NE,45,0.0,0.0,72,0.00,,---,0.00,VWS V14.01,2013-06-29 09:01:00,
2013-06-29 02:06:00,67.6,57.9,29.88,NE,45,0.0,0.0,71,0.00,,---,0.00,VWS V14.01,2013-06-29 09:06:00,
2013-06-29 02:12:00,67.5,57.7,29.91,NE,45,0.0,0.0,71,0.00,,---,0.00,VWS V14.01,2013-06-29 09:12:00,
2013-06-29 02:17:00,67.5,57.7,29.91,ENE,68,0.0,0.0,71,0.00,,---,0.00,VWS V14.01,2013-06-29 09:17:00,
2013-06-29 02:22:00,67.5,57.7,29.91,NE,45,0.0,0.0,71,0.00,,---,0.00,VWS V14.01,2013-06-29 09:22:00,
2013-06-29 02:27:00,67.5,57.7,29.91,ENE,68,0.0,0.0,71,0.00,,---,0.00,VWS V14.01,2013-06-29 09:27:00,
2013-06-29 02:32:00,67.3,58.0,29.91,SE,135,0.0,0.0,72,0.00,,---,0.00,VWS V14.01,2013-06-29 09:32:00,
2013-06-29 02:37:00,67.1,57.4,29.91,SE,135,0.0,0.0,71,0.00,,---,0.00,VWS V14.01,2013-06-29 09:37:00,
2013-06-29 02:42:00,67.1,57.4,29.88,SSE,158,1.1,1.1,71,0.00,,---,0.00,VWS V14.01,2013-06-29 09:42:00,
2013-06-29 02:47:00,66.9,57.6,29.88,SSE,158,0.0,2.2,72,0.00,,---,0.00,VWS V14.01,2013-06-29 09:47:00,
2013-06-29 02:52:00,66.9,57.6,29.88,SE,135,1.3,2.0,72,0.00,,---,0.00,VWS V14.01,2013-06-29 09:52:00,
2013-06-29 02:57:00,66.9,57.6,29.88,SSE,158,0.0,1.3,72,0.00,,---,0.00,VWS V14.01,2013-06-29 09:57:00,
2013-06-29 03:02:00,66.7,57.4,29.88,SSE,158,0.0,0.0,72,0.00,,---,0.00,VWS V14.01,2013-06-29 10:02:00,
2013-06-29 03:07:00,66.7,57.4,29.88,SSE,158,0.0,0.0,72,0.00,,---,0.00,VWS V14.01,2013-06-29 10:07:00,
2013-06-29 03:12:00,66.6,57.3,29.88,SE,135,0.0,0.0,72,0.00,,---,0.00,VWS V14.01,2013-06-29 10:12:00,
2013-06-29 03:17:00,66.6,57.7,29.88,SE,135,0.0,0.0,73,0.00,,---,0.00,VWS V14.01,2013-06-29 10:17:00,
2013-06-29 03:22:00,66.4,57.1,29.88,SW,225,0.0,0.0,72,0.00,,---,0.00,VWS V14.01,2013-06-29 10:22:00,
2013-06-29 03:27:00,66.2,56.9,29.88,South,180,0.0,0.0,72,0.00,,---,0.00,VWS V14.01,2013-06-29 10:27:00,
2013-06-29 03:32:00,66.2,56.9,29.88,ENE,68,0.0,0.0,72,0.00,,---,0.00,VWS V14.01,2013-06-29 10:32:00,
2013-06-29 03:37:00,66.0,56.7,29.88,NW,315,0.0,0.0,72,0.00,,---,0.00,VWS V14.01,2013-06-29 10:37:00,
2013-06-29 03:42:00,66.0,57.1,29.88,ESE,112,0.0,0.0,73,0.00,,---,0.00,VWS V14.01,2013-06-29 10:42:00,
2013-06-29 03:47:00,65.8,57.3,29.88,East,90,0.0,0.0,74,0.00,,---,0.00,VWS V14.01,2013-06-29 10:47:00,
2013-06-29 03:52:00,65.8,57.0,29.88,NE,45,0.0,0.0,73,0.00,,---,0.00,VWS V14.01,2013-06-29 10:52:00,
2013-06-29 03:57:00,65.8,57.0,29.88,ENE,68,0.0,0.0,73,0.00,,---,0.00,VWS V14.01,2013-06-29 10:57:00,
2013-06-29 04:02:00,65.7,56.8,29.88,ENE,68,0.0,0.0,73,0.00,,---,0.00,VWS V14.01,2013-06-29 11:02:00,
2013-06-29 04:07:00,65.7,57.2,29.88,ENE,68,0.0,0.0,74,0.00,,---,0.00,VWS V14.01,2013-06-29 11:07:00,
2013-06-29 04:12:00,65.7,57.2,29.88,NE,45,0.0,0.0,74,0.00,,---,0.00,VWS V14.01,2013-06-29 11:12:00,
2013-06-29 04:17:00,65.5,57.0,29.88,NE,45,0.0,0.0,74,0.00,,---,0.00,VWS V14.01,2013-06-29 11:17:00,
2013-06-29 04:22:00,65.5,57.0,29.88,North,0,0.0,0.0,74,0.00,,---,0.00,VWS V14.01,2013-06-29 11:22:00,
2013-06-29 04:27:00,65.3,56.8,29.88,NNW,338,0.0,0.0,74,0.00,,---,0.00,VWS V14.01,2013-06-29 11:27:00,
2013-06-29 04:32:00,65.1,57.0,29.88,NW,315,0.0,0.0,75,0.00,,---,0.00,VWS V14.01,2013-06-29 11:32:00,
2013-06-29 04:37:00,65.1,57.0,29.88,SE,135,0.0,0.0,75,0.00,,---,0.00,VWS V14.01,2013-06-29 11:37:00,
2013-06-29 04:42:00,64.9,56.8,29.88,ESE,112,0.0,0.0,75,0.00,,---,0.00,VWS V14.01,2013-06-29 11:42:00,
2013-06-29 04:47:00,64.8,56.7,29.88,SE,135,0.0,0.0,75,0.00,,---,0.00,VWS V14.01,2013-06-29 11:47:00,
2013-06-29 04:52:00,64.9,57.2,29.88,ESE,112,0.0,0.0,76,0.00,,---,0.00,VWS V14.01,2013-06-29 11:52:00,
2013-06-29 04:57:00,64.9,56.8,29.91,East,90,0.0,0.0,75,0.00,,---,0.00,VWS V14.01,2013-06-29 11:57:00,
2013-06-29 05:02:00,64.8,56.7,29.91,East,90,0.0,0.0,75,0.00,,---,0.00,VWS V14.01,2013-06-29 12:02:00,
2013-06-29 05:07:00,64.8,56.7,29.91,NNE,22,0.9,0.9,75,0.00,,---,0.00,VWS V14.01,2013-06-29 12:07:00,
2013-06-29 05:12:00,64.8,56.7,29.91,NE,45,0.0,0.9,75,0.00,,---,0.00,VWS V14.01,2013-06-29 12:12:00,
2013-06-29 05:17:00,64.6,56.5,29.91,NE,45,0.0,0.0,75,0.00,,---,0.00,VWS V14.01,2013-06-29 12:17:00,
2013-06-29 05:22:00,64.6,56.5,29.91,ENE,68,0.0,0.0,75,0.00,,---,0.00,VWS V14.01,2013-06-29 12:22:00,
2013-06-29 05:27:00,64.4,56.7,29.88,NNE,22,0.0,0.0,76,0.00,,---,0.00,VWS V14.01,2013-06-29 12:27:00,
2013-06-29 05:32:00,64.4,56.7,29.88,ENE,68,1.1,1.1,76,0.00,,---,0.00,VWS V14.01,2013-06-29 12:32:00,
2013-06-29 05:37:00,64.2,56.9,29.88,ENE,68,0.0,1.6,77,0.00,,---,0.00,VWS V14.01,2013-06-29 12:37:00,
2013-06-29 05:42:00,64.2,56.9,29.91,NNE,22,0.0,0.0,77,0.00,,---,0.00,VWS V14.01,2013-06-29 12:42:00,
2013-06-29 05:47:00,63.9,56.5,29.91,WNW,292,0.0,0.0,77,0.00,,---,0.00,VWS V14.01,2013-06-29 12:47:00,
2013-06-29 05:52:00,63.7,56.3,29.91,NE,45,0.0,0.0,77,0.00,,---,0.00,VWS V14.01,2013-06-29 12:52:00,
2013-06-29 05:57:00,63.5,56.2,29.88,SSE,158,0.0,0.0,77,0.00,,---,0.00,VWS V14.01,2013-06-29 12:57:00,
2013-06-29 06:02:00,63.5,56.5,29.88,South,180,0.0,0.0,78,0.00,,---,0.00,VWS V14.01,2013-06-29 13:02:00,
2013-06-29 06:07:00,63.5,56.5,29.88,SE,135,0.0,0.0,78,0.00,,---,0.00,VWS V14.01,2013-06-29 13:07:00,
2013-06-29 06:12:00,63.7,57.0,29.88,SE,135,0.0,0.0,79,0.00,,---,0.00,VWS V14.01,2013-06-29 13:12:00,
2013-06-29 06:17:00,63.9,57.2,29.88,East,90,0.0,0.0,79,0.00,,---,0.00,VWS V14.01,2013-06-29 13:17:00,
2013-06-29 06:22:00,63.9,56.9,29.88,ENE,68,0.0,0.0,78,0.00,,---,0.00,VWS V14.01,2013-06-29 13:22:00,
2013-06-29 06:27:00,63.9,56.9,29.88,SSE,158,0.0,0.0,78,0.00,,---,0.00,VWS V14.01,2013-06-29 13:27:00,
2013-06-29 06:32:00,63.9,56.9,29.88,SE,135,2.0,2.0,78,0.00,,---,0.00,VWS V14.01,2013-06-29 13:32:00,
2013-06-29 06:37:00,63.9,56.9,29.88,ESE,112,1.6,2.7,78,0.00,,---,0.00,VWS V14.01,2013-06-29 13:37:00,
2013-06-29 06:42:00,64.0,56.7,29.88,ESE,112,0.9,2.0,77,0.00,,---,0.00,VWS V14.01,2013-06-29 13:42:00,
2013-06-29 06:47:00,64.2,57.2,29.88,East,90,2.2,2.2,78,0.00,,---,0.00,VWS V14.01,2013-06-29 13:47:00,
2013-06-29 06:52:00,64.6,57.2,29.88,SE,135,0.0,2.2,77,0.00,,---,0.00,VWS V14.01,2013-06-29 13:52:00,
2013-06-29 06:57:00,65.1,57.7,29.88,NW,315,0.0,2.9,77,0.00,,---,0.00,VWS V14.01,2013-06-29 13:57:00,
2013-06-29 07:02:00,65.1,57.7,29.88,East,90,0.0,0.0,77,0.00,,---,0.00,VWS V14.01,2013-06-29 14:02:00,
2013-06-29 07:07:00,65.1,57.7,29.88,NW,315,0.0,2.0,77,0.00,,---,0.00,VWS V14.01,2013-06-29 14:07:00,
2013-06-29 07:12:00,65.5,58.5,29.88,NW,315,0.0,2.2,78,0.00,,---,0.00,VWS V14.01,2013-06-29 14:12:00,
2013-06-29 07:17:00,65.5,58.5,29.88,NW,315,0.0,0.0,78,0.00,,---,0.00,VWS V14.01,2013-06-29 14:17:00,
2013-06-29 07:23:00,65.7,58.6,29.88,NNW,338,0.0,0.0,78,0.00,,---,0.00,VWS V14.01,2013-06-29 14:23:00,
2013-06-29 07:28:00,66.0,59.0,29.88,NNE,22,0.0,0.0,78,0.00,,---,0.00,VWS V14.01,2013-06-29 14:28:00,
2013-06-29 07:33:00,66.2,59.2,29.88,East,90,0.0,0.0,78,0.00,,---,0.00,VWS V14.01,2013-06-29 14:33:00,
2013-06-29 07:38:00,66.4,59.3,29.88,WNW,292,0.0,0.0,78,0.00,,---,0.00,VWS V14.01,2013-06-29 14:38:00,
2013-06-29 07:43:00,66.7,59.7,29.88,SSE,158,0.0,0.0,78,0.00,,---,0.00,VWS V14.01,2013-06-29 14:43:00,
2013-06-29 07:48:00,67.3,60.5,29.88,SW,225,0.0,0.0,79,0.00,,---,0.00,VWS V14.01,2013-06-29 14:48:00,
2013-06-29 07:53:00,67.6,60.9,29.91,NW,315,0.0,0.0,79,0.00,,---,0.00,VWS V14.01,2013-06-29 14:53:00,
2013-06-29 07:58:00,68.0,61.2,29.91,North,0,0.0,0.0,79,0.00,,---,0.00,VWS V14.01,2013-06-29 14:58:00,
2013-06-29 08:03:00,68.4,61.6,29.91,West,270,0.0,0.0,79,0.00,,---,0.00,VWS V14.01,2013-06-29 15:03:00,
2013-06-29 08:08:00,69.3,62.5,29.91,South,180,0.0,0.0,79,0.00,,---,0.00,VWS V14.01,2013-06-29 15:08:00,
2013-06-29 08:13:00,69.6,62.1,29.91,South,180,0.0,0.0,77,0.00,,---,0.00,VWS V14.01,2013-06-29 15:13:00,
2013-06-29 08:18:00,70.2,62.2,29.91,South,180,0.0,0.0,76,0.00,,---,0.00,VWS V14.01,2013-06-29 15:18:00,
2013-06-29 08:22:00,70.5,62.6,29.91,West,270,0.0,0.9,76,0.00,,---,0.00,VWS V14.01,2013-06-29 15:22:00,
2013-06-29 08:27:00,71.2,62.5,29.91,West,270,1.1,1.1,74,0.00,,---,0.00,VWS V14.01,2013-06-29 15:27:00,
2013-06-29 08:32:00,72.0,62.8,29.91,West,270,0.0,1.3,73,0.00,,---,0.00,VWS V14.01,2013-06-29 15:32:00,
2013-06-29 08:37:00,72.3,62.8,29.91,South,180,0.0,0.0,72,0.00,,---,0.00,VWS V14.01,2013-06-29 15:37:00,
2013-06-29 08:42:00,72.5,63.0,29.91,WNW,292,1.3,1.3,72,0.00,,---,0.00,VWS V14.01,2013-06-29 15:42:00,
2013-06-29 08:47:00,73.6,63.2,29.91,NW,315,1.3,1.6,70,0.00,,---,0.00,VWS V14.01,2013-06-29 15:47:00,
2013-06-29 08:52:00,73.8,62.5,29.91,South,180,2.0,2.0,68,0.00,,---,0.00,VWS V14.01,2013-06-29 15:52:00,
2013-06-29 08:57:00,74.3,63.1,29.91,South,180,0.0,2.7,68,0.00,,---,0.00,VWS V14.01,2013-06-29 15:57:00,
2013-06-29 09:02:00,75.2,63.1,29.91,NW,315,1.3,2.9,66,0.00,,---,0.00,VWS V14.01,2013-06-29 16:02:00,
2013-06-29 09:07:00,75.6,63.4,29.91,WNW,292,2.0,2.7,66,0.00,,---,0.00,VWS V14.01,2013-06-29 16:07:00,
2013-06-29 09:12:00,75.9,63.8,29.91,West,270,1.3,2.7,66,0.00,,---,0.00,VWS V14.01,2013-06-29 16:12:00,
2013-06-29 09:17:00,76.3,63.7,29.91,West,270,1.3,2.5,65,0.00,,---,0.00,VWS V14.01,2013-06-29 16:17:00,
2013-06-29 09:22:00,76.6,64.0,29.91,NW,315,1.3,2.9,65,0.00,,---,0.00,VWS V14.01,2013-06-29 16:22:00,
2013-06-29 09:27:00,77.2,63.6,29.91,South,180,0.9,2.5,63,0.00,,---,0.00,VWS V14.01,2013-06-29 16:27:00,
2013-06-29 09:32:00,77.5,64.0,29.91,NNW,338,2.5,2.5,63,0.00,,---,0.00,VWS V14.01,2013-06-29 16:32:00,
2013-06-29 09:37:00,78.3,62.8,29.91,NW,315,1.6,2.9,59,0.00,,---,0.00,VWS V14.01,2013-06-29 16:37:00,
2013-06-29 09:42:00,78.4,62.0,29.91,West,270,1.1,2.0,57,0.00,,---,0.00,VWS V14.01,2013-06-29 16:42:00,
2013-06-29 09:47:00,78.3,63.2,29.91,NW,315,1.3,1.3,60,0.00,,---,0.00,VWS V14.01,2013-06-29 16:47:00,
2013-06-29 09:52:00,79.2,63.1,29.88,West,270,1.1,2.7,58,0.00,,---,0.00,VWS V14.01,2013-06-29 16:52:00,
2013-06-29 09:57:00,79.0,63.4,29.88,West,270,0.9,1.1,59,0.00,,---,0.00,VWS V14.01,2013-06-29 16:57:00,
2013-06-29 10:02:00,79.9,62.8,29.88,South,180,2.0,2.9,56,0.00,,---,0.00,VWS V14.01,2013-06-29 17:02:00,
2013-06-29 10:07:00,80.2,64.1,29.88,NW,315,2.0,2.0,58,0.00,,---,0.00,VWS V14.01,2013-06-29 17:07:00,
2013-06-29 10:12:00,80.1,64.0,29.88,NNW,338,0.0,0.0,58,0.00,,---,0.00,VWS V14.01,2013-06-29 17:12:00,
2013-06-29 10:17:00,80.6,63.0,29.88,South,180,2.5,2.9,55,0.00,,---,0.00,VWS V14.01,2013-06-29 17:17:00,
2013-06-29 10:22:00,81.5,64.8,29.91,NNW,338,4.0,4.0,57,0.00,,---,0.00,VWS V14.01,2013-06-29 17:22:00,
2013-06-29 10:27:00,82.0,63.8,29.91,NNW,338,0.9,0.9,54,0.00,,---,0.00,VWS V14.01,2013-06-29 17:27:00,
2013-06-29 10:32:00,82.0,63.8,29.91,NNW,338,3.1,3.1,54,0.00,,---,0.00,VWS V14.01,2013-06-29 17:32:00,
2013-06-29 10:37:00,82.4,64.1,29.91,West,270,3.1,3.1,54,0.00,,---,0.00,VWS V14.01,2013-06-29 17:37:00,
2013-06-29 10:42:00,82.9,63.5,29.91,NW,315,3.1,4.7,52,0.00,,---,0.00,VWS V14.01,2013-06-29 17:42:00,
2013-06-29 10:47:00,83.3,63.9,29.91,NNE,22,2.2,2.2,52,0.00,,---,0.00,VWS V14.01,2013-06-29 17:47:00,
2013-06-29 10:52:00,83.7,63.6,29.91,West,270,3.4,3.4,51,0.00,,---,0.00,VWS V14.01,2013-06-29 17:52:00,
2013-06-29 10:57:00,84.0,64.0,29.91,NNW,338,0.0,0.0,51,0.00,,---,0.00,VWS V14.01,2013-06-29 17:57:00,
2013-06-29 11:02:00,84.7,62.9,29.91,NE,45,3.1,3.1,48,0.00,,---,0.00,VWS V14.01,2013-06-29 18:02:00,
2013-06-29 11:08:00,84.9,62.5,29.91,West,270,0.9,0.9,47,0.00,,---,0.00,VWS V14.01,2013-06-29 18:08:00,
2013-06-29 11:13:00,85.5,63.5,29.91,West,270,5.4,5.4,48,0.00,,---,0.00,VWS V14.01,2013-06-29 18:13:00,
2013-06-29 11:18:00,85.8,63.9,29.91,West,270,3.1,3.1,48,0.00,,---,0.00,VWS V14.01,2013-06-29 18:18:00,
2013-06-29 11:23:00,85.8,63.9,29.91,South,180,2.9,2.9,48,0.00,,---,0.00,VWS V14.01,2013-06-29 18:23:00,
2013-06-29 11:28:00,86.4,63.8,29.91,West,270,3.1,3.1,47,0.00,,---,0.00,VWS V14.01,2013-06-29 18:28:00,
2013-06-29 11:33:00,86.7,64.1,29.91,West,270,3.8,3.8,47,0.00,,---,0.00,VWS V14.01,2013-06-29 18:33:00,
2013-06-29 11:38:00,87.3,63.3,29.88,West,270,2.9,3.1,45,0.00,,---,0.00,VWS V14.01,2013-06-29 18:38:00,
2013-06-29 11:43:00,87.3,64.0,29.88,North,0,2.9,2.9,46,0.00,,---,0.00,VWS V14.01,2013-06-29 18:43:00,
2013-06-29 11:48:00,87.6,64.9,29.88,South,180,4.7,4.7,47,0.00,,---,0.00,VWS V14.01,2013-06-29 18:48:00,
2013-06-29 11:53:00,88.0,64.0,29.88,NNE,22,2.5,2.5,45,0.00,,---,0.00,VWS V14.01,2013-06-29 18:53:00,
2013-06-29 11:58:00,88.7,64.0,29.88,NNE,22,2.0,2.0,44,0.00,,---,0.00,VWS V14.01,2013-06-29 18:58:00,
2013-06-29 12:03:00,89.1,63.7,29.88,WNW,292,2.5,2.5,43,0.00,,---,0.00,VWS V14.01,2013-06-29 19:03:00,
2013-06-29 12:08:00,89.1,64.3,29.88,WNW,292,2.2,3.8,44,0.00,,---,0.00,VWS V14.01,2013-06-29 19:08:00,
2013-06-29 12:13:00,89.4,62.6,29.88,West,270,1.6,2.0,41,0.00,,---,0.00,VWS V14.01,2013-06-29 19:13:00,
2013-06-29 12:18:00,89.2,63.8,29.88,West,270,2.2,2.2,43,0.00,,---,0.00,VWS V14.01,2013-06-29 19:18:00,
2013-06-29 12:23:00,89.2,63.2,29.88,West,270,2.5,2.5,42,0.00,,---,0.00,VWS V14.01,2013-06-29 19:23:00,
2013-06-29 12:28:00,87.3,75.8,29.88,NW,315,4.0,4.0,69,0.00,,---,0.00,VWS V14.01,2013-06-29 19:28:00,
2013-06-29 12:33:00,86.9,76.4,29.88,WNW,292,3.1,3.1,71,0.00,,---,0.00,VWS V14.01,2013-06-29 19:33:00,
2013-06-29 12:38:00,87.1,78.2,29.88,West,270,5.4,6.0,75,0.00,,---,0.00,VWS V14.01,2013-06-29 19:38:00,
2013-06-29 12:43:00,87.1,77.8,29.88,NW,315,2.7,4.0,74,0.00,,---,0.00,VWS V14.01,2013-06-29 19:43:00,
2013-06-29 12:48:00,87.6,77.9,29.88,South,180,1.6,2.0,73,0.00,,---,0.00,VWS V14.01,2013-06-29 19:48:00,
2013-06-29 12:53:00,88.0,77.8,29.88,NW,315,4.3,4.3,72,0.00,,---,0.00,VWS V14.01,2013-06-29 19:53:00,
2013-06-29 12:58:00,88.5,79.6,29.88,WNW,292,1.6,1.6,75,0.00,,---,0.00,VWS V14.01,2013-06-29 19:58:00,
2013-06-29 13:03:00,88.9,80.7,29.88,WNW,292,2.2,2.2,77,0.00,,---,0.00,VWS V14.01,2013-06-29 20:03:00,
2013-06-29 13:08:00,89.2,81.1,29.88,NW,315,3.4,3.4,77,0.00,,---,0.00,VWS V14.01,2013-06-29 20:08:00,
2013-06-29 13:13:00,90.0,81.0,29.88,West,270,3.6,3.6,75,0.00,,---,0.00,VWS V14.01,2013-06-29 20:13:00,
2013-06-29 13:18:00,90.5,78.5,29.88,WNW,292,1.6,1.6,68,0.00,,---,0.00,VWS V14.01,2013-06-29 20:18:00,
2013-06-29 13:23:00,91.0,82.4,29.88,NNW,338,1.6,1.6,76,0.00,,---,0.00,VWS V14.01,2013-06-29 20:23:00,
2013-06-29 13:28:00,92.1,82.6,29.88,NW,315,4.0,4.0,74,0.00,,---,0.00,VWS V14.01,2013-06-29 20:28:00,
2013-06-29 13:33:00,92.5,79.9,29.88,NW,315,3.8,3.8,67,0.00,,---,0.00,VWS V14.01,2013-06-29 20:33:00,
2013-06-29 13:38:00,93.2,77.3,29.85,South,180,3.4,4.0,60,0.00,,---,0.00,VWS V14.01,2013-06-29 20:38:00,
2013-06-29 13:43:00,93.2,77.3,29.85,NW,315,4.3,4.3,60,0.00,,---,0.00,VWS V14.01,2013-06-29 20:43:00,
2013-06-29 13:48:00,93.2,77.3,29.85,West,270,4.9,6.5,60,0.00,,---,0.00,VWS V14.01,2013-06-29 20:48:00,
2013-06-29 13:53:00,93.2,77.3,29.85,West,270,2.5,5.8,60,0.00,,---,0.00,VWS V14.01,2013-06-29 20:53:00,
2013-06-29 13:58:00,93.2,77.3,29.85,NNW,338,4.5,4.5,60,0.00,,---,0.00,VWS V14.01,2013-06-29 20:58:00,
2013-06-29 14:03:00,93.2,77.3,29.85,NW,315,1.6,5.4,60,0.00,,---,0.00,VWS V14.01,2013-06-29 21:03:00,
2013-06-29 14:08:00,93.2,77.3,29.85,NW,315,4.3,4.5,60,0.00,,---,0.00,VWS V14.01,2013-06-29 21:08:00,
2013-06-29 14:13:00,93.2,77.3,29.85,West,270,4.3,4.3,60,0.00,,---,0.00,VWS V14.01,2013-06-29 21:13:00,
2013-06-29 14:18:00,93.2,77.3,29.85,NE,45,2.9,3.1,60,0.00,,---,0.00,VWS V14.01,2013-06-29 21:18:00,
2013-06-29 14:23:00,93.2,77.3,29.85,NW,315,4.0,4.0,60,0.00,,---,0.00,VWS V14.01,2013-06-29 21:23:00,
2013-06-29 14:28:00,93.2,77.3,29.85,NNW,338,2.5,6.3,60,0.00,,---,0.00,VWS V14.01,2013-06-29 21:28:00,
2013-06-29 14:33:00,93.2,77.3,29.85,NNW,338,3.1,3.1,60,0.00,,---,0.00,VWS V14.01,2013-06-29 21:33:00,
2013-06-29 14:38:00,93.2,77.3,29.85,West,270,3.1,3.1,60,0.00,,---,0.00,VWS V14.01,2013-06-29 21:38:00,
2013-06-29 14:43:00,93.2,77.3,29.85,West,270,3.8,5.4,60,0.00,,---,0.00,VWS V14.01,2013-06-29 21:43:00,
2013-06-29 14:48:00,93.2,77.3,29.85,South,180,2.9,3.6,60,0.00,,---,0.00,VWS V14.01,2013-06-29 21:48:00,
2013-06-29 14:53:00,93.2,77.3,29.82,West,270,3.1,4.3,60,0.00,,---,0.00,VWS V14.01,2013-06-29 21:53:00,
2013-06-29 14:58:00,93.2,77.3,29.82,West,270,4.0,4.0,60,0.00,,---,0.00,VWS V14.01,2013-06-29 21:58:00,
2013-06-29 15:03:00,93.2,77.3,29.82,NW,315,3.1,3.1,60,0.00,,---,0.00,VWS V14.01,2013-06-29 22:03:00,
2013-06-29 15:08:00,93.2,77.3,29.82,NW,315,4.0,4.0,60,0.00,,---,0.00,VWS V14.01,2013-06-29 22:08:00,
2013-06-29 15:13:00,93.2,77.3,29.82,NNW,338,4.3,4.3,60,0.00,,---,0.00,VWS V14.01,2013-06-29 22:13:00,
2013-06-29 15:18:00,93.2,77.3,29.82,NNW,338,4.3,4.9,60,0.00,,---,0.00,VWS V14.01,2013-06-29 22:18:00,
2013-06-29 15:23:00,93.2,77.3,29.82,West,270,3.6,4.3,60,0.00,,---,0.00,VWS V14.01,2013-06-29 22:23:00,
2013-06-29 15:28:00,93.2,77.3,29.82,West,270,4.3,4.3,60,0.00,,---,0.00,VWS V14.01,2013-06-29 22:28:00,
2013-06-29 15:33:00,93.2,77.3,29.82,WNW,292,5.8,5.8,60,0.00,,---,0.00,VWS V14.01,2013-06-29 22:33:00,
2013-06-29 15:38:00,93.2,77.3,29.82,West,270,6.5,6.5,60,0.00,,---,0.00,VWS V14.01,2013-06-29 22:38:00,
2013-06-29 15:44:00,93.2,77.3,29.82,West,270,4.3,7.6,60,0.00,,---,0.00,VWS V14.01,2013-06-29 22:44:00,
2013-06-29 15:49:00,93.2,77.3,29.82,West,270,2.5,4.0,60,0.00,,---,0.00,VWS V14.01,2013-06-29 22:49:00,
2013-06-29 15:54:00,93.2,77.3,29.82,West,270,4.0,4.0,60,0.00,,---,0.00,VWS V14.01,2013-06-29 22:54:00,
2013-06-29 15:59:00,93.2,77.3,29.82,NW,315,2.5,4.3,60,0.00,,---,0.00,VWS V14.01,2013-06-29 22:59:00,
2013-06-29 16:04:00,93.2,77.3,29.82,West,270,5.4,5.4,60,0.00,,---,0.00,VWS V14.01,2013-06-29 23:04:00,
2013-06-29 16:09:00,93.2,77.3,29.79,West,270,3.8,5.6,60,0.00,,---,0.00,VWS V14.01,2013-06-29 23:09:00,
2013-06-29 16:14:00,93.2,77.3,29.79,West,270,3.8,3.8,60,0.00,,---,0.00,VWS V14.01,2013-06-29 23:14:00,
2013-06-29 16:19:00,93.2,77.3,29.79,South,180,3.1,3.4,60,0.00,,---,0.00,VWS V14.01,2013-06-29 23:19:00,
2013-06-29 16:24:00,93.2,77.3,29.79,South,180,4.9,4.9,60,0.00,,---,0.00,VWS V14.01,2013-06-29 23:24:00,
2013-06-29 16:29:00,93.2,77.3,29.79,South,180,3.1,3.8,60,0.00,,---,0.00,VWS V14.01,2013-06-29 23:29:00,
2013-06-29 16:34:00,93.2,77.3,29.79,WNW,292,2.2,4.9,60,0.00,,---,0.00,VWS V14.01,2013-06-29 23:34:00,
2013-06-29 16:39:00,93.2,77.3,29.79,West,270,2.7,4.9,60,0.00,,---,0.00,VWS V14.01,2013-06-29 23:39:00,
2013-06-29 22:31:00,75.2,54.2,29.82,WNW,292,1.6,1.6,48,0.00,,---,0.00,VWS V14.01,2013-06-30 05:31:00,
2013-06-29 22:32:00,75.2,54.2,29.82,NW,315,0.0,1.6,48,0.00,,---,0.00,VWS V14.01,2013-06-30 05:32:00,
2013-06-29 22:35:00,75.0,54.0,29.82,ENE,68,0.0,0.0,48,0.00,,---,0.00,VWS V14.01,2013-06-30 05:35:00,
2013-06-29 22:40:00,74.8,54.4,29.82,SE,135,0.0,2.5,49,0.00,,---,0.00,VWS V14.01,2013-06-30 05:40:00,
2013-06-29 22:42:00,74.8,54.4,29.82,NE,45,0.0,2.5,49,0.00,,---,0.00,VWS V14.01,2013-06-30 05:42:00,
2013-06-29 22:47:00,74.3,54.5,29.82,North,0,0.0,1.6,50,0.00,,---,0.00,VWS V14.01,2013-06-30 05:47:00,
2013-06-29 22:52:00,74.1,54.3,29.82,NNE,22,0.0,2.7,50,0.00,,---,0.00,VWS V14.01,2013-06-30 05:52:00,
2013-06-29 22:57:00,74.1,54.9,29.82,North,0,0.0,2.5,51,0.00,,---,0.00,VWS V14.01,2013-06-30 05:57:00,
2013-06-29 23:02:00,73.8,55.1,29.82,North,0,0.0,0.0,52,0.00,,---,0.00,VWS V14.01,2013-06-30 06:02:00,
2013-06-29 23:07:00,73.6,54.9,29.82,ENE,68,0.9,0.9,52,0.00,,---,0.00,VWS V14.01,2013-06-30 06:07:00,
2013-06-29 23:12:00,73.4,55.2,29.82,NNW,338,0.0,1.1,53,0.00,,---,0.00,VWS V14.01,2013-06-30 06:12:00,
2013-06-29 23:17:00,73.2,55.6,29.82,NNE,22,0.0,0.0,54,0.00,,---,0.00,VWS V14.01,2013-06-30 06:17:00,
2013-06-29 23:22:00,72.9,55.3,29.82,East,90,0.0,0.0,54,0.00,,---,0.00,VWS V14.01,2013-06-30 06:22:00,
2013-06-29 23:27:00,72.7,55.6,29.82,NE,45,0.0,0.0,55,0.00,,---,0.00,VWS V14.01,2013-06-30 06:27:00,
2013-06-29 23:32:00,72.5,55.4,29.82,NE,45,0.0,0.0,55,0.00,,---,0.00,VWS V14.01,2013-06-30 06:32:00,
2013-06-29 23:37:00,72.3,55.3,29.82,ENE,68,0.0,0.0,55,0.00,,---,0.00,VWS V14.01,2013-06-30 06:37:00,
2013-06-29 23:42:00,72.1,55.1,29.82,ENE,68,0.0,0.0,55,0.00,,---,0.00,VWS V14.01,2013-06-30 06:42:00,
2013-06-29 23:47:00,72.1,55.1,29.82,NE,45,0.0,0.0,55,0.00,,---,0.00,VWS V14.01,2013-06-30 06:47:00,
2013-06-29 23:52:00,72.0,54.9,29.82,ENE,68,0.0,0.0,55,0.00,,---,0.00,VWS V14.01,2013-06-30 06:52:00,
2013-06-29 23:57:00,71.8,54.8,29.82,ENE,68,0.0,0.0,55,0.00,,---,0.00,VWS V14.01,2013-06-30 06:57:00,